Flag for Australia Weather past 2 weeks in Canberra, Australian Capital Territory, Australia

Now
48 °F

Clear.


Feels Like: 48 °F
Forecast: 46 / 76 °F
Wind: 2 mph from Southeast

Location: Canberra Airport

Current Time: Mar 7, 2015 at 2:04:16 AM

Latest Report: Mar 7, 2015 at 1:30 AM


Visibility: N/A

Pressure: 29.89 "Hg

Humidity: 82%

Dew point: 43 °F

Location of CanberraLocation

Historic Weather in Canberra — Graph

°F

Canberra temperature yesterday

Maximum temperature yesterday: 75 °F (at 4:30 PM)
Minimum temperature yesterday: 45 °F (at 2:30 AM)
Average temperature yesterday: 62 °F

Past Weeks' High & Low Weather Summary

 TemperatureHumidityPressure
High90 °F (Feb 23, 4:30 PM)100% (Feb 22, 5:00 AM)30.12 "Hg (Feb 22, 5:00 AM)
Low45 °F (Mar 2, 6:00 AM)15% (Mar 4, 6:30 PM)29.71 "Hg (Mar 1, 5:00 AM)
Average68 °F63%29.94 "Hg
* Reported Feb 20 1:00 AM — Mar 7 1:00 AM, Canberra, Weather by CustomWeather, © 2015

Note: Actual official high and low records may vary slightly from our data, if they occured in-between our weather recording intervals... More about our weather records

Advertising

Canberra weather history for previous 24 hours

 ConditionsComfort  
Time TempWeatherWind HumidityBarometerVisibility
1:00 AM
Sat, Mar 7
48 °FClear.1 mph82%29.86 "HgN/A
12:30 AM50 °FClear.1 mph76%29.86 "HgN/A
12:00 AM54 °FClear.7 mph72%29.86 "HgN/A
11:00 PM
Fri, Mar 6
52 °FClear.1 mph72%29.86 "HgN/A
10:30 PM54 °FClear.5 mph72%29.86 "HgN/A
10:00 PM54 °FClear.1 mph63%29.83 "HgN/A
9:30 PM59 °FClear.7 mph55%29.83 "HgN/A
9:00 PM63 °FClear.8 mph52%29.83 "HgN/A
8:30 PM63 °FPassing clouds.8 mph49%29.83 "HgN/A
8:00 PM64 °FPassing clouds.8 mph46%29.80 "HgN/A
7:30 PM66 °FSunny.12 mph43%29.80 "Hg10 mi
7:00 PM70 °FSunny.15 mph35%29.77 "Hg10 mi
6:30 PM72 °FSunny.15 mph36%29.77 "Hg10 mi
6:00 PM73 °FSunny.16 mph33%29.74 "Hg10 mi
5:30 PM73 °FSunny.16 mph38%29.74 "Hg10 mi
5:00 PM73 °FSunny.17 mph36%29.71 "Hg10 mi
4:30 PM75 °FSunny.16 mph34%29.71 "Hg10 mi
4:00 PM73 °FSunny.20 mph36%29.71 "Hg10 mi
3:30 PM73 °FSunny.21 mph36%29.71 "Hg10 mi
3:00 PM73 °FSunny.21 mph33%29.74 "Hg10 mi
2:00 PM73 °FSunny.17 mph36%29.74 "Hg10 mi
1:30 PM73 °FSunny.18 mph36%29.74 "Hg10 mi
1:00 PM72 °FSunny.18 mph33%29.74 "Hg10 mi
12:30 PM72 °FSunny.18 mph33%29.74 "Hg10 mi
12:00 PM72 °FSunny.18 mph31%29.77 "Hg10 mi
11:30 AM70 °FSunny.15 mph31%29.77 "Hg10 mi
11:00 AM68 °FSunny.18 mph28%29.77 "Hg10 mi
10:30 AM66 °FSunny.14 mph28%29.80 "Hg10 mi
10:00 AM64 °FSunny.14 mph30%29.77 "Hg10 mi
9:30 AM63 °FSunny.10 mph32%29.80 "Hg10 mi
9:00 AM61 °FSunny.14 mph31%29.80 "Hg10 mi
8:30 AM59 °FSunny.13 mph34%29.80 "Hg10 mi
8:00 AM55 °FSunny.10 mph41%29.80 "Hg10 mi
7:00 AM55 °FSunny.14 mph36%29.77 "Hg10 mi
6:30 AM57 °FClear.16 mph33%29.77 "Hg10 mi
6:00 AM55 °FClear.14 mph33%29.77 "Hg10 mi
5:30 AM55 °FClear.13 mph31%29.80 "Hg10 mi
5:00 AM55 °FClear.15 mph28%29.77 "Hg10 mi
4:30 AM55 °FClear.10 mph26%29.80 "Hg10 mi
4:00 AM55 °FClear.5 mph31%29.80 "HgN/A
3:30 AM54 °FClear.10 mph38%29.83 "HgN/A
3:00 AM46 °FClear.2 mph76%29.83 "HgN/A
2:30 AM45 °FClear.5 mph76%29.86 "HgN/A
2:00 AM46 °FClear.1 mph76%29.86 "HgN/A
Weather by CustomWeather, © 2015

See weather overviewHow to use our weather pages